Location: L�gaud
(45.7115°N, 1.7775°E)
Time: 14:15:37
(UTC+00:00)

Cosmos 1666 - Pass Details

Date: 03 March 2021
Orbit: 497 x 518 km, 82.5° (Epoch: 15 April)

Event Time Altitude Azimuth Distance (km) Brightness Sun altitude
Rises 20:03:23 0° 210° (SSW) 2,573 6.4 -25.1°
Reaches altitude 10° 20:05:38 10° 220° (SW) 1,696 5.5 -25.5°
Maximum altitude 20:09:00 32° 285° (WNW) 878 4.4 -26.0°
Drops below altitude 10° 20:12:24 10° 350° (N) 1,715 5.7 -26.6°
Sets 20:14:42 0° 1° (N) 2,607 6.5 -27.0°
